ZAREMBO AK US current weather conditions

sailwx.info

Wind from 079 at 11 knots gusting 19

Air temperature 4.4° C
Dewpoint 4.0° C

Last reported at 2016-Dec-03 17:55 UTC.
Time now 2016-Dec-03 19:41 UTC

Location: N 56°18' W 132°51'.
View on Google Maps.

See reports from other nearby stations

  
Tides and Currents Weather Stations Pressure Air Temp Water Temp Dewpoint Dewpoint Depression Visibility Wind Speed Wind Dir Waves Ship Positions
date/time (UTC)wind fromknots sea level pressurealtimeterstation pressurevisibilityair tempwater tempwave heightnotes
2016-Dec-03 17:55 079 11 gusting 19 4.4
2016-Dec-03 16:55 096 12 gusting 23 5.0
2016-Dec-03 15:55 113 12 gusting 25 3.9
2016-Dec-03 14:55 094 10 gusting 23 3.9
2016-Dec-03 13:55 095 14 gusting 24 5.6
2016-Dec-03 12:55 098 14 gusting 23 5.0
2016-Dec-03 11:55 090 14 gusting 31 4.4
2016-Dec-03 10:55 091 14 gusting 23 3.9
2016-Dec-03 09:55 106 13 gusting 24 3.9
2016-Dec-03 08:55 104 13 gusting 28 5.0
2016-Dec-03 07:55 101 11 gusting 23 4.4
2016-Dec-03 06:55 099 12 gusting 23 5.6
2016-Dec-03 05:55 090 13 gusting 21 6.7
2016-Dec-03 04:55 103 12 gusting 25 12.8
2016-Dec-03 03:55 132 13 gusting 30 3.3
2016-Dec-03 02:55 130 14 gusting 33 3.3
2016-Dec-03 01:55 119 15 gusting 33 3.9
2016-Dec-03 00:55 114 17 gusting 33 4.4
2016-Dec-02 23:55 117 16 gusting 33 4.4
2016-Dec-02 22:55 116 14 gusting 32 4.4
2016-Dec-02 21:55 110 18 gusting 33 4.4
2016-Dec-02 20:55 101 18 gusting 31 4.4
2016-Dec-02 19:55 095 20 gusting 33 5.0
2016-Dec-02 18:55 101 20 gusting 39 4.4
2016-Dec-02 17:55 093 20 gusting 35 4.4
2016-Dec-02 16:55 095 19 gusting 38 5.0
2016-Dec-02 15:55 096 21 gusting 37 4.4
2016-Dec-02 13:55 083 18 gusting 33 4.4
2016-Dec-02 12:55 099 14 gusting 37 5.0
2016-Dec-02 11:55 091 17 gusting 37 5.0
2016-Dec-02 10:55 082 17 gusting 41 3.9
2016-Dec-02 09:55 057 9 gusting 42 3.3
2016-Dec-02 08:55 059 12 gusting 36 3.3
2016-Dec-02 07:55 043 11 gusting 29 3.9
2016-Dec-02 06:55 049 9 gusting 25 3.9
2016-Dec-02 05:55 051 7 gusting 41 3.9
2016-Dec-02 04:55 053 6 gusting 19 4.4
2016-Dec-02 03:55 038 6 gusting 19 4.4
2016-Dec-02 02:55 044 6 gusting 19 4.4
2016-Dec-02 01:55 065 5 gusting 16 4.4
2016-Dec-02 00:55 053 6 gusting 25 4.4
2016-Dec-01 23:55 073 9 gusting 22 4.4
2016-Dec-01 22:55 081 9 gusting 23 4.4
2016-Dec-01 21:55 077 13 gusting 26 3.9
2016-Dec-01 20:55 078 13 gusting 26 3.9
2016-Dec-01 19:55 079 12 gusting 26 3.9